Home   Weather   Mount Pearl   Past weeks

Flag for Canada Past Weather in Mount Pearl, Newfoundland and Labrador, Canada — Yesterday and Last 2 Weeks

Now
27 °F

Broken clouds.


Feels Like: 19 °F
Forecast: 25 / 46 °F
Wind: 7 mph from West

Location: St. John's

Current Time: Apr 26, 2017 at 7:44:01 am

Latest Report: Apr 26, 2017 at 6:30 am


Visibility: 15 mi

Pressure: 30.51 "Hg

Humidity: 86%

Dew Point: 23 °F

Location of Mount PearlLocation

Past Weather in Mount Pearl — Graph

°F

Mount Pearl Temperature Yesterday

Maximum temperature yesterday: 39 °F (at 2:30 pm)
Minimum temperature yesterday: 28 °F (at 5:30 am)
Average temperature yesterday: 34 °F

High & Low Weather Summary for the Past Weeks

 TemperatureHumidityPressure
High54 °F (Apr 11, 3:30 pm)100% (Apr 12, 6:09 am)30.51 "Hg (Apr 12, 6:09 am)
Low23 °F (Apr 18, 5:39 am)39% (Apr 25, 3:30 pm)29.66 "Hg (Apr 17, 4:46 pm)
Average33 °F86%30.11 "Hg
* Reported Apr 11 6:30 am — Apr 26 6:30 am, Mount Pearl, Weather by CustomWeather, © 2017

Note: Actual official high and low records may vary slightly from our data, if they occured in-between our weather recording intervals... More about our weather records

Advertising

Mount Pearl Weather History for the Previous 24 Hours

Scroll right to see more
 ConditionsComfort  
Time TempWeatherWind HumidityBarometerVisibility
6:30 am
Wed, Apr 26
27 °FBroken clouds.7 mph86%30.51 "Hg15 mi
5:30 am25 °FPassing clouds.8 mph86%30.50 "Hg15 mi
4:30 am27 °FPassing clouds.9 mph86%30.51 "Hg15 mi
3:30 am28 °FPassing clouds.12 mph80%30.48 "Hg15 mi
2:30 am30 °FPassing clouds.7 mph75%30.48 "Hg15 mi
1:30 am28 °FPassing clouds.10 mph86%30.48 "Hg15 mi
12:30 am30 °FClear.14 mph80%30.46 "Hg15 mi
11:30 pm
Tue, Apr 25
30 °FPassing clouds.9 mph75%30.46 "Hg15 mi
10:30 pm30 °FPassing clouds.12 mph75%30.45 "Hg15 mi
9:30 pm32 °FPassing clouds.14 mph69%30.44 "Hg15 mi
8:30 pm34 °FPassing clouds.9 mph56%30.42 "Hg15 mi
7:36 pm36 °FPassing clouds.10 mph48%30.40 "Hg15 mi
6:30 pm37 °FPassing clouds.15 mph45%30.40 "Hg15 mi
5:30 pm39 °FScattered clouds.16 mph42%30.39 "Hg15 mi
4:30 pm39 °FPassing clouds.21 mph42%30.37 "Hg15 mi
3:30 pm39 °FPassing clouds.21 mph39%30.36 "Hg15 mi
2:30 pm39 °FPassing clouds.22 mph42%30.36 "Hg15 mi
1:30 pm37 °FPassing clouds.20 mph41%30.35 "Hg15 mi
12:30 pm36 °FPassing clouds.22 mph44%30.35 "Hg15 mi
11:30 am36 °FPassing clouds.18 mph48%30.34 "Hg15 mi
10:30 am32 °FPassing clouds.22 mph47%30.34 "Hg15 mi
9:30 am32 °FPassing clouds.24 mph60%30.33 "Hg15 mi
8:30 am30 °FPassing clouds.24 mph64%30.30 "Hg15 mi
7:30 am28 °FSunny.21 mph69%30.27 "Hg15 mi
Weather by CustomWeather, © 2017

See weather overviewHow to use our weather pages